Hayward, WI

4:32 PM CDT on June 25, 2017 (GMT -0500)
Sawyer County

Weather History for KHYR - October, 2012

Change the Weather History Date:

Saturday, October 13, 2012

  Actual Average Record
Temperature  
Mean Temperature 42 °F -  
Max Temperature 48 °F 60 °F 77 °F (2000)
Min Temperature 39 °F 42 °F 24 °F (2002)
Degree Days  
Heating Degree Days 22    
Moisture  
Dew Point 39 °F    
Average Humidity 86    
Maximum Humidity 93    
Minimum Humidity 40    
Precipitation  
Precipitation 0.00 in - - ()
Sea Level Pressure  
Sea Level Pressure 29.86 in    
Wind  
Wind Speed 6 mph (SSE)    
Max Wind Speed 14 mph    
Max Gust Speed 21 mph    
Visibility 6 miles    
Events Rain    
Averages and records for this station are not official NWS values.
T = Trace of Precipitation, MM = Missing Value Source: NWS Daily Summary

Daily Weather History Graph

Daily Weather History Graph

Search for Another Location

Airport or City:

Trip Planner

Search our weather history database for the weather conditions in past years. The results will help you decide how hot, cold, wet, or windy it might be!

Date:

Astronomy

Oct. 13, 2012 Rise Set
Actual Time 7:20 AM CDT 6:22 PM CDT
Civil Twilight 6:50 AM CDT 6:52 PM CDT
Nautical Twilight 6:15 AM CDT 7:26 PM CDT
Astronomical Twilight 5:41 AM CDT 8:01 PM CDT
Moon 5:05 AM CDT (10/13) 5:09 PM CDT (10/13)
Length of Visible Light 12h 01m
Length of Day
11h 01m
Waning Crescent, 5% of the Moon is Illuminated
Oct 13
Waning Crescent
Oct 15
New
Oct 21
First Quarter
Oct 29
Full
Nov 6
Last Quarter

Hourly Weather History & Observations

Time (CDT) Temp. Windchill Dew Point Humidity Pressure Visibility Wind Dir Wind Speed Gust Speed Precip Events Conditions
12:53 AM 43.0 °F 38.2 °F 19.9 °F 40% 30.09 in 10.0 mi South 8.1 mph - N/A   Overcast
1:53 AM 43.0 °F 37.7 °F 19.9 °F 40% 30.06 in 10.0 mi South 9.2 mph - N/A   Overcast
2:21 AM 42.8 °F 38.0 °F 24.8 °F 49% 30.04 in 10.0 mi South 8.1 mph - N/A   Overcast
2:53 AM 44.1 °F 39.0 °F 30.0 °F 58% 30.04 in 10.0 mi South 9.2 mph 17.3 mph 0.00 in   Overcast
3:14 AM 44.6 °F 39.7 °F 30.2 °F 57% 29.99 in 10.0 mi South 9.2 mph 19.6 mph N/A   Overcast
3:53 AM 42.1 °F 34.9 °F 34.0 °F 73% 30.00 in 9.0 mi South 13.8 mph 20.7 mph 0.00 in Rain Light Rain
4:26 AM 39.2 °F 33.6 °F 35.6 °F 87% 29.94 in 4.0 mi SE 8.1 mph - 0.00 in   Overcast
4:53 AM 39.0 °F 34.8 °F 36.0 °F 89% 29.96 in 4.0 mi SSE 5.8 mph - 0.00 in   Overcast
5:53 AM 39.0 °F 35.7 °F 37.0 °F 93% 29.96 in 3.0 mi South 4.6 mph - N/A   Overcast
6:00 AM 39.2 °F 35.0 °F 37.4 °F 93% 29.93 in 2.5 mi South 5.8 mph 18.4 mph 0.00 in Rain Light Rain
6:23 AM 39.2 °F 35.0 °F 37.4 °F 93% 29.91 in 3.0 mi SSE 5.8 mph - 0.00 in   Overcast
6:34 AM 39.2 °F 35.9 °F 37.4 °F 93% 29.91 in 2.5 mi South 4.6 mph - 0.00 in   Overcast
6:41 AM 39.2 °F 34.2 °F 37.4 °F 93% 29.90 in 3.0 mi SSE 6.9 mph - 0.00 in   Overcast
6:53 AM 39.9 °F 34.5 °F 37.0 °F 89% 29.92 in 3.0 mi SSE 8.1 mph - 0.00 in   Overcast
7:53 AM 39.9 °F 33.9 °F 37.9 °F 93% 29.90 in 4.0 mi South 9.2 mph - N/A   Overcast
8:53 AM 41.0 °F 36.4 °F 39.0 °F 93% 29.86 in 5.0 mi South 6.9 mph - N/A   Overcast
9:53 AM 42.1 °F - 39.9 °F 92% 29.87 in 10.0 mi Calm Calm - N/A   Overcast
10:53 AM 43.0 °F 40.3 °F 41.0 °F 93% 29.86 in 5.0 mi SSE 4.6 mph - N/A   Overcast
11:53 AM 44.1 °F 42.5 °F 42.1 °F 93% 29.83 in 8.0 mi South 3.5 mph - N/A   Overcast
12:53 PM 46.9 °F - 44.1 °F 90% 29.79 in 10.0 mi South 5.8 mph - N/A   Overcast
1:53 PM 46.0 °F 44.8 °F 43.0 °F 89% 29.78 in 10.0 mi South 3.5 mph - N/A   Overcast
2:38 PM 46.4 °F - 44.6 °F 93% 29.74 in 2.0 mi Calm Calm - N/A   Overcast
2:53 PM 46.0 °F 44.8 °F 44.1 °F 93% 29.76 in 2.0 mi South 3.5 mph - N/A   Overcast
3:04 PM 46.4 °F - 44.6 °F 93% 29.73 in 4.0 mi Calm Calm - N/A   Overcast
3:45 PM 46.4 °F - 44.6 °F 93% 29.73 in 7.0 mi Calm Calm - N/A   Overcast
3:53 PM 46.9 °F - 45.0 °F 93% 29.75 in 5.0 mi Calm Calm - N/A   Overcast
4:21 PM 46.4 °F 45.2 °F 44.6 °F 93% 29.72 in 4.0 mi East 3.5 mph - N/A   Overcast
4:53 PM 46.9 °F - 44.1 °F 90% 29.75 in 10.0 mi Calm Calm - N/A   Overcast
5:02 PM 46.4 °F - 44.6 °F 93% 29.73 in 10.0 mi Calm Calm - N/A   Overcast
5:53 PM 46.9 °F - 44.1 °F 90% 29.77 in 10.0 mi ESE 3.5 mph - N/A   Overcast
7:53 PM 46.9 °F - 44.1 °F 90% 29.79 in 10.0 mi Calm Calm - N/A   Overcast
8:53 PM 46.9 °F - 44.1 °F 90% 29.81 in 10.0 mi Calm Calm - N/A   Overcast
9:10 PM 46.4 °F - 44.6 °F 93% 29.79 in 7.0 mi Calm Calm - N/A   Overcast
9:53 PM 46.9 °F - 45.0 °F 93% 29.81 in 3.0 mi Calm Calm - N/A   Overcast
10:18 PM 46.4 °F - 44.6 °F 93% 29.78 in 2.0 mi Calm Calm - N/A   Overcast
11:01 PM 46.4 °F - 44.6 °F 93% 29.79 in 5.0 mi Calm Calm - N/A   Overcast
11:40 PM 46.4 °F - 44.6 °F 93% 29.78 in 6.0 mi Calm Calm - N/A   Overcast
11:53 PM 46.0 °F - 44.1 °F 93% 29.81 in 5.0 mi Calm Calm - N/A   Overcast